Wilkerson Pass, CO

6:51 AM MDT on October 22, 2017 (GMT -0600)
Wilkerson Pass

Weather History for K4BM - February, 2014

Change the Weather History Date:

Saturday, February 22, 2014

  Actual Average (KAFF) Record (KAFF)
Temperature  
Mean Temperature 21 °F -  
Max Temperature 30 °F 40 °F 64 °F (2002)
Min Temperature 12 °F 19 °F 1 °F (2013)
Degree Days  
Heating Degree Days 44    
Moisture  
Dew Point 7 °F    
Average Humidity 61    
Maximum Humidity 79    
Minimum Humidity 40    
Precipitation  
Precipitation 0.00 in - - ()
Sea Level Pressure  
Sea Level Pressure 29.89 in    
Wind  
Wind Speed 9 mph (SW)    
Max Wind Speed 14 mph    
Max Gust Speed 24 mph    
Visibility 10 miles    
Events      
Averages and records for this station are not official NWS values.
T = Trace of Precipitation, MM = Missing Value Source: NWS Daily Summary

Daily Weather History Graph

Daily Weather History Graph

Search for Another Location

Airport or City:

Trip Planner

Search our weather history database for the weather conditions in past years. The results will help you decide how hot, cold, wet, or windy it might be!

Date:

Astronomy

Feb. 22, 2014 Rise Set
Actual Time 6:44 AM MST 5:47 PM MST
Civil Twilight 6:17 AM MST 6:14 PM MST
Nautical Twilight 5:46 AM MST 6:45 PM MST
Astronomical Twilight 5:15 AM MST 7:16 PM MST
Moon 12:41 AM MST 11:01 AM MST
Length of Visible Light 11h 56m
Length of Day
11h 02m
Waning Gibbous, 49% of the Moon is Illuminated
Feb 22
Waning Gibbous
Mar 1
New
Mar 8
First Quarter
Mar 16
Full
Mar 23
Last Quarter

Hourly Weather History & Observations

Time (MST) Temp. Windchill Dew Point Humidity Pressure Visibility Wind Dir Wind Speed Gust Speed Precip Events Conditions
12:00 AM 14.0 °F 1.2 °F 3.2 °F 62% 29.90 in 10.0 mi SW 10.4 mph 18.4 mph N/A   Scattered Clouds
12:20 AM 14.0 °F 0.5 °F 1.4 °F 57% 29.89 in 10.0 mi SW 11.5 mph 19.6 mph N/A   Clear
12:40 AM 14.0 °F 2.0 °F 1.4 °F 57% 29.89 in 10.0 mi SSW 9.2 mph 17.3 mph N/A   Clear
1:00 AM 14.0 °F 0.5 °F 1.4 °F 57% 29.89 in 10.0 mi SW 11.5 mph 18.4 mph N/A   Clear
1:20 AM 14.0 °F 2.0 °F 3.2 °F 62% 29.89 in 10.0 mi SW 9.2 mph 19.6 mph N/A   Clear
1:40 AM 14.0 °F 3.9 °F 3.2 °F 62% 29.88 in 10.0 mi SW 6.9 mph - N/A   Clear
2:00 AM 14.0 °F 5.1 °F 3.2 °F 62% 29.88 in 10.0 mi WSW 5.8 mph - N/A   Clear
2:20 AM 14.0 °F 5.1 °F 5.0 °F 67% 29.88 in 10.0 mi WSW 5.8 mph - N/A   Clear
2:40 AM 14.0 °F 3.9 °F 5.0 °F 67% 29.87 in 10.0 mi SW 6.9 mph - N/A   Clear
3:00 AM 14.0 °F 3.9 °F 5.0 °F 67% 29.87 in 10.0 mi SW 6.9 mph - N/A   Clear
3:20 AM 14.0 °F 2.0 °F 5.0 °F 67% 29.87 in 10.0 mi SSW 9.2 mph 20.7 mph N/A   Clear
3:40 AM 14.0 °F 0.5 °F 5.0 °F 67% 29.87 in 10.0 mi SW 11.5 mph 19.6 mph N/A   Clear
4:00 AM 12.2 °F -0.2 °F 5.0 °F 73% 29.86 in 10.0 mi SW 9.2 mph 17.3 mph N/A   Clear
4:19 AM 12.2 °F 0.7 °F 3.2 °F 67% 29.87 in 10.0 mi SW 8.1 mph - N/A   Clear
4:40 AM 12.2 °F -1.0 °F 3.2 °F 67% 29.86 in 10.0 mi SW 10.4 mph 19.6 mph N/A   Clear
4:59 AM 12.2 °F -1.8 °F 3.2 °F 67% 29.87 in 10.0 mi SW 11.5 mph 19.6 mph N/A   Scattered Clouds
5:20 AM 12.2 °F -3.1 °F 3.2 °F 67% 29.86 in 10.0 mi SW 13.8 mph 20.7 mph N/A   Mostly Cloudy
5:39 AM 12.2 °F -2.5 °F 3.2 °F 67% 29.85 in 10.0 mi SW 12.7 mph 24.2 mph N/A   Scattered Clouds
6:00 AM 12.2 °F -2.5 °F 1.4 °F 62% 29.86 in 10.0 mi SW 12.7 mph 21.9 mph N/A   Clear
6:20 AM 12.2 °F -1.0 °F 3.2 °F 67% 29.85 in 10.0 mi SW 10.4 mph 19.6 mph N/A   Scattered Clouds
6:40 AM 12.2 °F -1.8 °F 3.2 °F 67% 29.85 in 10.0 mi SSW 11.5 mph 16.1 mph N/A   Scattered Clouds
7:00 AM 12.2 °F -1.8 °F 1.4 °F 62% 29.86 in 10.0 mi SW 11.5 mph 20.7 mph N/A   Clear
7:20 AM 12.2 °F -1.8 °F 1.4 °F 62% 29.86 in 10.0 mi SW 11.5 mph 19.6 mph N/A   Clear
7:39 AM 12.2 °F -2.5 °F 1.4 °F 62% 29.88 in 10.0 mi SW 12.7 mph 17.3 mph N/A   Clear
7:59 AM 14.0 °F 2.9 °F 1.4 °F 57% 29.88 in 10.0 mi SSW 8.1 mph - N/A   Clear
8:20 AM 15.8 °F 5.1 °F 1.4 °F 53% 29.88 in 10.0 mi SW 8.1 mph 16.1 mph N/A   Clear
8:40 AM 17.6 °F 6.4 °F 1.4 °F 49% 29.89 in 10.0 mi SW 9.2 mph - N/A   Clear
9:00 AM 19.4 °F 9.5 °F 1.4 °F 46% 29.89 in 10.0 mi SSW 8.1 mph - N/A   Clear
9:19 AM 19.4 °F 8.6 °F 3.2 °F 49% 29.89 in 10.0 mi SSW 9.2 mph - N/A   Clear
9:39 AM 21.2 °F 10.9 °F 3.2 °F 46% 29.89 in 10.0 mi SSW 9.2 mph - N/A   Clear
10:00 AM 21.2 °F 12.6 °F 3.2 °F 46% 29.90 in 10.0 mi SSW 6.9 mph - N/A   Clear
10:19 AM 23.0 °F 15.8 °F 3.2 °F 43% 29.90 in 10.0 mi SSW 5.8 mph - N/A   Clear
10:40 AM 24.8 °F 17.9 °F 5.0 °F 43% 29.90 in 10.0 mi SSW 5.8 mph - N/A   Clear
11:00 AM 26.6 °F 21.2 °F 5.0 °F 40% 29.90 in 10.0 mi SW 4.6 mph - N/A   Clear
11:20 AM 26.6 °F 20.0 °F 6.8 °F 43% 29.89 in 10.0 mi SW 5.8 mph - N/A   Clear
11:40 AM 26.6 °F 19.1 °F 8.6 °F 47% 29.88 in 10.0 mi WSW 6.9 mph - N/A   Clear
12:00 PM 28.4 °F 21.2 °F 10.4 °F 47% 29.87 in 10.0 mi SW 6.9 mph - N/A   Clear
12:20 PM 28.4 °F 22.2 °F 8.6 °F 43% 29.87 in 10.0 mi SW 5.8 mph - N/A   Clear
12:40 PM 28.4 °F 21.2 °F 8.6 °F 43% 29.86 in 10.0 mi SW 6.9 mph - N/A   Clear
1:00 PM 30.2 °F 22.6 °F 10.4 °F 44% 29.86 in 10.0 mi SSW 8.1 mph - N/A   Clear
1:20 PM 28.4 °F 19.7 °F 10.4 °F 47% 29.85 in 10.0 mi SSW 9.2 mph 17.3 mph N/A   Scattered Clouds
1:40 PM 28.4 °F 19.7 °F 10.4 °F 47% 29.86 in 10.0 mi SSW 9.2 mph 18.4 mph N/A   Mostly Cloudy
2:00 PM 28.4 °F 22.2 °F 12.2 °F 51% 29.86 in 10.0 mi SW 5.8 mph - N/A   Overcast
2:20 PM 26.6 °F 17.5 °F 12.2 °F 55% 29.86 in 10.0 mi SSW 9.2 mph 23.0 mph N/A   Overcast
2:40 PM 26.6 °F 19.1 °F 12.2 °F 55% 29.86 in 10.0 mi SSW 6.9 mph 16.1 mph N/A   Overcast
3:00 PM 26.6 °F 16.2 °F 12.2 °F 55% 29.86 in 10.0 mi SSW 11.5 mph 18.4 mph N/A   Overcast
3:20 PM 26.6 °F 17.5 °F 12.2 °F 55% 29.86 in 10.0 mi SSW 9.2 mph - N/A   Overcast
3:40 PM 26.6 °F 17.5 °F 12.2 °F 55% 29.86 in 10.0 mi SSW 9.2 mph 19.6 mph N/A   Overcast
4:00 PM 24.8 °F 14.6 °F 12.2 °F 59% 29.87 in 10.0 mi SSW 10.4 mph 20.7 mph N/A   Overcast
4:20 PM 23.0 °F 13.9 °F 12.2 °F 63% 29.87 in 10.0 mi SSW 8.1 mph 20.7 mph N/A   Overcast
4:40 PM 21.2 °F 11.7 °F 12.2 °F 68% 29.88 in 10.0 mi SSW 8.1 mph 16.1 mph N/A   Overcast
5:00 PM 21.2 °F 11.7 °F 12.2 °F 68% 29.88 in 10.0 mi SSW 8.1 mph 16.1 mph N/A   Mostly Cloudy
5:20 PM 19.4 °F 8.6 °F 10.4 °F 68% 29.88 in 10.0 mi SSW 9.2 mph 16.1 mph N/A   Scattered Clouds
5:40 PM 19.4 °F 11.5 °F 10.4 °F 68% 29.89 in 10.0 mi SW 5.8 mph - N/A   Scattered Clouds
5:59 PM 19.4 °F 7.9 °F 8.6 °F 63% 29.89 in 10.0 mi SSW 10.4 mph 20.7 mph N/A   Clear
6:20 PM 19.4 °F 7.2 °F 10.4 °F 68% 29.90 in 10.0 mi SSW 11.5 mph 21.9 mph N/A   Clear
6:40 PM 17.6 °F 5.0 °F 10.4 °F 73% 29.91 in 10.0 mi SSW 11.5 mph 19.6 mph N/A   Scattered Clouds
6:59 PM 17.6 °F 7.3 °F 10.4 °F 73% 29.90 in 10.0 mi SSW 8.1 mph 17.3 mph N/A   Mostly Cloudy
7:20 PM 17.6 °F 5.7 °F 10.4 °F 73% 29.91 in 10.0 mi SSW 10.4 mph - N/A   Mostly Cloudy
7:40 PM 17.6 °F 6.4 °F 10.4 °F 73% 29.91 in 10.0 mi SSW 9.2 mph 19.6 mph N/A   Mostly Cloudy
8:00 PM 17.6 °F 6.4 °F 10.4 °F 73% 29.91 in 10.0 mi SSW 9.2 mph 21.9 mph N/A   Mostly Cloudy
8:20 PM 17.6 °F 5.0 °F 8.6 °F 68% 29.92 in 10.0 mi SSW 11.5 mph 19.6 mph N/A   Scattered Clouds
8:40 PM 17.6 °F 6.4 °F 8.6 °F 68% 29.92 in 10.0 mi SSW 9.2 mph 18.4 mph N/A   Mostly Cloudy
9:00 PM 17.6 °F 3.7 °F 8.6 °F 68% 29.93 in 10.0 mi SW 13.8 mph 19.6 mph N/A   Scattered Clouds
9:20 PM 17.6 °F 5.0 °F 8.6 °F 68% 29.93 in 10.0 mi SSW 11.5 mph 20.7 mph N/A   Scattered Clouds
9:40 PM 17.6 °F 8.2 °F 8.6 °F 68% 29.94 in 10.0 mi SW 6.9 mph 16.1 mph N/A   Mostly Cloudy
10:00 PM 15.8 °F 7.2 °F 8.6 °F 73% 29.94 in 10.0 mi WSW 5.8 mph - N/A   Scattered Clouds
10:20 PM 17.6 °F 7.3 °F 10.4 °F 73% 29.95 in 10.0 mi West 8.1 mph - N/A   Clear
10:40 PM 15.8 °F 5.1 °F 10.4 °F 79% 29.94 in 10.0 mi WSW 8.1 mph - N/A   Scattered Clouds
11:00 PM 15.8 °F 7.2 °F 10.4 °F 79% 29.94 in 10.0 mi WSW 5.8 mph - N/A   Mostly Cloudy
11:19 PM 15.8 °F 5.1 °F 10.4 °F 79% 29.94 in 10.0 mi WSW 8.1 mph - N/A   Mostly Cloudy
11:40 PM 15.8 °F 5.1 °F 10.4 °F 79% 29.94 in 10.0 mi WSW 8.1 mph - N/A   Scattered Clouds